User: anonymous   Login
Location: Platte
(43.3870°N, 98.8440°W)
Time: 03:30:36
(UTC-05:00)
Language:

Landsat 7 - Orbit

View from above orbital plane
View from above orbital plane
View from above satellite
View from above satellite

Ground track
Ground track

The orbit data is extracted from the following two-line orbital elements,

1 25682U 99020A   15141.76740684  .00000471  00000-0  11465-3 0  9999
2 25682 098.2179 212.0303 0000933 072.5027 287.6270 14.57111841856295
Epoch (UTC): 21 May 2015 18:25:03
Eccentricity: 0.0000933
inclination: 98.2179°
perigee height: 702 km
apogee height: 703 km
right ascension of ascending node: 212.0303°
argument of perigee: 72.5027°
revolutions per day: 14.57111841
mean anomaly at epoch: 287.6270°
orbit number at epoch: 85629

The dashed part of the orbit path shows where the satellite is in the earth's shadow,  

DLR